IZ2NAI-3 Weather Reports


Display with metric or nautical units.
time (UTC)temp
F
wind
direction
speed
MPH
gust
MPH
rain 1hr
in
rain 24hr
in
rain mn
in
humidity
%
barometer
mb
20260503034005 49 0 0.0 0.0 0.00 0.00 0.00 83 1018.9
20260503033005 50 0 0.0 0.0 0.00 0.00 0.00 81 1018.8
20260503032505 50 0 0.0 0.0 0.00 0.00 0.00 81 1018.8
20260503032005 50 0 0.0 0.0 0.00 0.00 0.00 81 1018.9
20260503031505 51 0 0.0 0.0 0.00 0.00 0.00 81 1018.9
20260503031005 51 251 0.0 2.0 0.00 0.00 0.00 81 1018.9
20260503030506 51 251 1.0 2.0 0.00 0.00 0.00 80 1018.9
20260503030005 51 252 2.0 4.0 0.00 0.00 0.00 80 1019.0
20260503025505 51 252 1.0 4.0 0.00 0.00 0.00 79 1019.0
20260503025005 51 0 0.0 0.0 0.00 0.00 0.00 79 1018.9
20260503024505 51 0 0.0 0.0 0.00 0.00 0.00 78 1018.9
20260503024005 51 0 0.0 0.0 0.00 0.00 0.00 78 1019.0
20260503023505 51 0 0.0 0.0 0.00 0.00 0.00 78 1019.0
20260503022505 51 0 0.0 0.0 0.00 0.00 0.00 79 1019.1
20260503022005 51 0 0.0 0.0 0.00 0.00 0.00 79 1019.2
20260503021505 52 0 0.0 0.0 0.00 0.00 0.00 78 1019.2
20260503021005 52 0 0.0 0.0 0.00 0.00 0.00 78 1019.1
20260503020005 53 0 0.0 0.0 0.00 0.00 0.00 77 1019.3
20260503015505 53 0 0.0 0.0 0.00 0.00 0.00 77 1019.3
20260503015005 53 0 0.0 0.0 0.00 0.00 0.00 75 1019.2
20260503014505 53 0 0.0 0.0 0.00 0.00 0.00 75 1019.2
20260503014005 53 0 0.0 0.0 0.00 0.00 0.00 75 1019.2
20260503013505 53 0 0.0 0.0 0.00 0.00 0.00 74 1019.2
20260503012005 53 0 0.0 0.0 0.00 0.00 0.00 74 1019.4
20260503011506 53 0 0.0 0.0 0.00 0.00 0.00 73 1019.5
20260503011005 54 0 0.0 0.0 0.00 0.00 0.00 73 1019.5
20260503010506 54 0 0.0 0.0 0.00 0.00 0.00 72 1019.6
20260503010005 54 0 0.0 0.0 0.00 0.00 0.00 73 1019.6
20260503005505 54 0 0.0 0.0 0.00 0.00 0.00 72 1019.6
20260503005005 54 0 0.0 0.0 0.00 0.00 0.00 71 1019.5
20260503004505 54 0 0.0 0.0 0.00 0.00 0.00 71 1019.6
20260503004005 54 0 0.0 0.0 0.00 0.00 0.00 71 1019.6
20260503003005 55 343 2.0 3.0 0.00 0.00 0.00 70 1019.7
20260503002505 55 337 2.0 3.0 0.00 0.00 0.00 70 1019.8
20260503002005 55 330 2.0 3.0 0.00 0.00 0.00 69 1019.9
20260503001005 56 340 2.0 4.0 0.00 0.00 0.00 68 1020.0
20260503000006 56 303 2.0 4.0 0.00 0.00 0.00 68 1020.1
20260502235505 56 294 3.0 5.0 0.00 0.00 0.00 67 1020.2
20260502235005 56 292 3.0 5.0 0.00 0.00 0.00 68 1020.2
20260502234505 56 291 2.0 4.0 0.00 0.00 0.00 69 1020.2
20260502234005 56 305 3.0 4.0 0.00 0.00 0.00 69 1020.2
20260502233005 56 317 2.0 5.0 0.00 0.00 0.00 71 1020.2
20260502232505 56 306 0.0 4.0 0.00 0.00 0.00 71 1020.1
20260502232005 56 0 0.0 0.0 0.00 0.00 0.00 71 1020.1
20260502231505 56 0 0.0 0.0 0.00 0.00 0.00 69 1020.1
20260502231005 56 0 0.0 0.0 0.00 0.00 0.00 69 1020.1
20260502230505 56 0 0.0 0.0 0.00 0.00 0.00 69 1020.2
20260502230005 56 0 0.0 0.0 0.00 0.00 0.00 68 1020.2
20260502225505 56 0 0.0 0.0 0.00 0.00 0.00 69 1020.2
20260502225005 57 0 0.0 0.0 0.00 0.00 0.00 69 1020.2
20260502224505 57 0 0.0 0.0 0.00 0.00 0.00 68 1020.3
20260502224006 57 0 0.0 0.0 0.00 0.00 0.00 68 1020.3
20260502223505 57 184 0.0 2.0 0.00 0.00 0.00 68 1020.3
20260502223005 58 183 0.0 3.0 0.00 0.00 0.00 66 1020.4
20260502222505 58 183 0.0 3.0 0.00 0.00 0.00 66 1020.5
20260502222005 58 186 0.0 2.0 0.00 0.00 0.00 66 1020.5
20260502221006 59 186 0.0 2.0 0.00 0.00 0.00 63 1020.5
20260502220009 59 184 0.0 2.0 0.00 0.00 0.00 63 1020.4
20260502214506 59 185 1.0 3.0 0.00 0.00 0.00 63 1020.4
20260502213506 59 179 2.0 3.0 0.00 0.00 0.00 64 1020.4
20260502213005 59 177 2.0 3.0 0.00 0.00 0.00 64 1020.3
20260502212506 58 176 2.0 4.0 0.00 0.00 0.00 64 1020.3
20260502212005 59 175 2.0 4.0 0.00 0.00 0.00 64 1020.4
20260502211505 59 174 1.0 3.0 0.00 0.00 0.00 64 1020.4
20260502211005 59 173 0.0 2.0 0.00 0.00 0.00 64 1020.4
20260502210005 60 152 1.0 2.0 0.00 0.00 0.00 63 1020.4
20260502205506 60 163 1.0 3.0 0.00 0.00 0.00 63 1020.5
20260502205006 60 177 2.0 3.0 0.00 0.00 0.00 61 1020.5
20260502204505 60 184 2.0 3.0 0.00 0.00 0.00 60 1020.5
20260502204005 61 184 1.0 3.0 0.00 0.00 0.00 60 1020.5
20260502203505 61 159 1.0 3.0 0.00 0.00 0.00 60 1020.7
20260502203005 62 157 1.0 3.0 0.00 0.00 0.00 60 1020.6
20260502202505 62 171 0.0 2.0 0.00 0.00 0.00 59 1020.6
20260502202006 63 179 1.0 3.0 0.00 0.00 0.00 56 1020.7
20260502201506 63 184 1.0 3.0 0.00 0.00 0.00 54 1020.7
20260502201006 64 184 1.0 3.0 0.00 0.00 0.00 53 1020.7
20260502200505 64 188 2.0 3.0 0.00 0.00 0.00 53 1020.7
20260502200005 64 189 2.0 4.0 0.00 0.00 0.00 53 1020.7
20260502195005 65 191 2.0 3.0 0.00 0.00 0.00 52 1020.7
20260502194506 65 189 2.0 4.0 0.00 0.00 0.00 52 1020.7
20260502194005 65 189 2.0 4.0 0.00 0.00 0.00 52 1020.7
20260502193505 65 186 2.0 4.0 0.00 0.00 0.00 52 1020.6
20260502193005 65 183 2.0 3.0 0.00 0.00 0.00 51 1020.6
20260502192505 66 182 1.0 3.0 0.00 0.00 0.00 50 1020.5
20260502192005 66 178 1.0 3.0 0.00 0.00 0.00 50 1020.5
20260502191505 67 183 2.0 4.0 0.00 0.00 0.00 50 1020.5
20260502191006 67 188 2.0 4.0 0.00 0.00 0.00 49 1020.4
20260502190505 67 188 2.0 4.0 0.00 0.00 0.00 48 1020.4
20260502190005 67 182 2.0 4.0 0.00 0.00 0.00 47 1020.4
20260502185505 68 181 2.0 3.0 0.00 0.00 0.00 46 1020.3
20260502185005 68 181 2.0 3.0 0.00 0.00 0.00 46 1020.4
20260502184506 69 181 1.0 3.0 0.00 0.00 0.00 46 1020.3
20260502184006 69 178 1.0 3.0 0.00 0.00 0.00 46 1020.3
20260502183505 69 181 1.0 3.0 0.00 0.00 0.00 45 1020.4
20260502183005 70 189 1.0 3.0 0.00 0.00 0.00 44 1020.3
20260502182505 70 190 1.0 3.0 0.00 0.00 0.00 43 1020.3
20260502182005 71 187 1.0 3.0 0.00 0.00 0.00 42 1020.3
20260502181005 72 188 1.0 3.0 0.00 0.00 0.00 40 1020.3
20260502170505 76 215 2.0 4.0 0.00 0.00 0.00 34 1020.3
20260502164005 76 227 2.0 5.0 0.00 0.00 0.00 34 1020.6
20260502163505 76 191 2.0 7.0 0.00 0.00 0.00 35 1020.5
20260502163005 76 177 2.0 7.0 0.00 0.00 0.00 34 1020.7
20260502162506 76 196 2.0 7.0 0.00 0.00 0.00 32 1020.6
20260502162006 77 207 2.0 7.0 0.00 0.00 0.00 33 1020.7
20260502161505 78 243 2.0 6.0 0.00 0.00 0.00 33 1020.7
20260502161005 78 235 2.0 6.0 0.00 0.00 0.00 31 1020.7
20260502160505 78 228 2.0 5.0 0.00 0.00 0.00 33 1020.7
20260502152005 77 206 2.0 7.0 0.00 0.00 0.00 33 1021.3
20260502150505 78 234 3.0 6.0 0.00 0.00 0.00 32 1021.4
20260502130505 77 205 4.0 8.0 0.00 0.00 0.00 33 1023.0
20260502123505 76 206 3.0 8.0 0.00 0.00 0.00 31 1023.4
20260502123005 76 224 3.0 9.0 0.00 0.00 0.00 33 1023.5
20260502122505 76 213 4.0 12.0 0.00 0.00 0.00 32 1023.4
20260502121005 76 239 4.0 9.0 0.00 0.00 0.00 33 1023.6
20260502120505 76 231 3.0 9.0 0.00 0.00 0.00 33 1023.7
20260502115505 76 209 5.0 12.0 0.00 0.00 0.00 33 1023.8
20260502115005 76 200 6.0 12.0 0.00 0.00 0.00 36 1023.9
20260502114505 76 206 4.0 12.0 0.00 0.00 0.00 34 1024.0
20260502114005 76 233 3.0 8.0 0.00 0.00 0.00 32 1024.0
20260502113505 76 216 4.0 8.0 0.00 0.00 0.00 33 1024.1
20260502113005 76 204 5.0 11.0 0.00 0.00 0.00 34 1024.2
20260502112006 76 220 3.0 10.0 0.00 0.00 0.00 33 1024.2
20260502111506 76 253 3.0 10.0 0.00 0.00 0.00 36 1024.4
20260502111005 75 228 4.0 10.0 0.00 0.00 0.00 34 1024.4
20260502110505 76 210 4.0 10.0 0.00 0.00 0.00 34 1024.5
20260502110005 75 215 3.0 9.0 0.00 0.00 0.00 37 1024.4
20260502105506 75 232 4.0 9.0 0.00 0.00 0.00 34 1024.5
20260502105006 74 265 4.0 9.0 0.00 0.00 0.00 37 1024.6
20260502103505 74 257 4.0 8.0 0.00 0.00 0.00 36 1024.8
20260502103005 74 241 3.0 8.0 0.00 0.00 0.00 33 1024.9
20260502102005 74 258 5.0 9.0 0.00 0.00 0.00 33 1025.0
20260502101505 74 259 4.0 9.0 0.00 0.00 0.00 34 1025.0
20260502101005 75 244 2.0 9.0 0.00 0.00 0.00 35 1025.2
20260502100505 75 235 2.0 5.0 0.00 0.00 0.00 33 1025.2
20260502091505 73 238 3.0 6.0 0.00 0.00 0.00 35 1025.7
20260502091005 72 232 3.0 6.0 0.00 0.00 0.00 37 1025.7
20260502090505 71 245 3.0 6.0 0.00 0.00 0.00 39 1025.7
20260502071505 63 312 2.0 4.0 0.00 0.00 0.00 61 1026.2
20260502071006 63 318 2.0 4.0 0.00 0.00 0.00 62 1026.2
20260502070505 62 298 2.0 4.0 0.00 0.00 0.00 62 1026.4
20260502070005 62 286 2.0 4.0 0.00 0.00 0.00 63 1026.3
20260502065505 61 298 2.0 4.0 0.00 0.00 0.00 65 1026.3
20260502065005 60 311 2.0 4.0 0.00 0.00 0.00 65 1026.3
20260502064505 60 310 1.0 4.0 0.00 0.00 0.00 66 1026.3
20260502064005 60 300 1.0 3.0 0.00 0.00 0.00 68 1026.4
20260502063505 59 287 1.0 3.0 0.00 0.00 0.00 68 1026.5
20260502063005 59 265 1.0 4.0 0.00 0.00 0.00 69 1026.5
20260502062006 58 286 2.0 4.0 0.00 0.00 0.00 69 1026.4
20260502061506 57 272 2.0 5.0 0.00 0.00 0.00 69 1026.5
20260502061005 57 266 2.0 5.0 0.00 0.00 0.00 69 1026.4
20260502060505 56 264 2.0 4.0 0.00 0.00 0.00 71 1026.3
20260502055505 55 259 2.0 5.0 0.00 0.00 0.00 72 1026.3
20260502055005 55 265 2.0 5.0 0.00 0.00 0.00 72 1026.3
20260502054505 54 270 2.0 4.0 0.00 0.00 0.00 73 1026.3
20260502054005 54 272 2.0 4.0 0.00 0.00 0.00 73 1026.4
20260502053505 53 272 2.0 4.0 0.00 0.00 0.00 73 1026.2
20260502053006 53 273 2.0 4.0 0.00 0.00 0.00 73 1026.4
20260502052006 52 264 2.0 4.0 0.00 0.00 0.00 73 1026.3
20260502051505 52 253 1.0 3.0 0.00 0.00 0.00 73 1026.3
20260502051005 51 253 2.0 3.0 0.00 0.00 0.00 73 1026.4
20260502050505 51 253 2.0 3.0 0.00 0.00 0.00 74 1026.4
20260502050005 51 254 1.0 3.0 0.00 0.00 0.00 74 1026.5
20260502045505 50 253 0.0 2.0 0.00 0.00 0.00 76 1026.4
20260502044505 50 253 0.0 2.0 0.00 0.00 0.00 77 1026.4
20260502044005 49 253 0.0 2.0 0.00 0.00 0.00 77 1026.3
20260502043505 49 0 0.0 0.0 0.00 0.00 0.00 77 1026.4
20260502043006 49 246 1.0 4.0 0.00 0.00 0.00 77 1026.3
20260502042505 49 248 2.0 5.0 0.00 0.00 0.00 76 1026.3
20260502041005 49 270 2.0 4.0 0.00 0.00 0.00 77 1026.3
20260502040505 49 273 2.0 4.0 0.00 0.00 0.00 78 1026.4
20260502040006 49 274 3.0 5.0 0.00 0.00 0.00 79 1026.5
20260502035506 49 272 3.0 5.0 0.00 0.00 0.00 80 1026.5
20260502035006 49 271 3.0 4.0 0.00 0.00 0.00 81 1026.5
20260502034505 48 267 3.0 4.0 0.00 0.00 0.00 82 1026.4